| time (UTC) | temp F | wind direction | speed knots | gust knots | rain 1hr in | rain 24hr in | rain mn in | humidity % | barometer mb |
| 20260504224033 | 70 | 256 | 0.9 | 2.6 | 0.00 | 0.00 | 0.00 | 33 | 1009.2 |
| 20260504222133 | 70 | 243 | 2.6 | 4.3 | 0.00 | 0.00 | 0.00 | 33 | 1009.0 |
| 20260504221150 | 71 | 238 | 2.6 | 5.2 | 0.00 | 0.00 | 0.00 | 34 | 1009.1 |
| 20260504220233 | 71 | 242 | 4.3 | 8.7 | 0.00 | 0.00 | 0.00 | 34 | 1009.1 |
| 20260504215232 | 71 | 267 | 1.7 | 4.3 | 0.00 | 0.00 | 0.00 | 34 | 1009.2 |
| 20260504214233 | 71 | 210 | 0.9 | 3.5 | 0.00 | 0.00 | 0.00 | 34 | 1009.2 |
| 20260504213233 | 71 | 249 | 1.7 | 4.3 | 0.00 | 0.00 | 0.00 | 34 | 1009.2 |
| 20260504212233 | 71 | 223 | 5.2 | 12.2 | 0.00 | 0.00 | 0.00 | 35 | 1009.2 |
| 20260504210233 | 72 | 239 | 2.6 | 7.0 | 0.00 | 0.00 | 0.00 | 35 | 1009.1 |
| 20260504204333 | 72 | 222 | 3.5 | 7.0 | 0.00 | 0.00 | 0.00 | 35 | 1009.2 |
| 20260504202433 | 71 | 208 | 5.2 | 10.4 | 0.00 | 0.00 | 0.00 | 35 | 1009.1 |
| 20260504201434 | 71 | 233 | 3.5 | 8.7 | 0.00 | 0.00 | 0.00 | 36 | 1009.2 |
| 20260504195531 | 71 | 248 | 3.5 | 7.0 | 0.00 | 0.00 | 0.00 | 37 | 1009.3 |
| 20260504194535 | 71 | 231 | 2.6 | 7.0 | 0.00 | 0.00 | 0.00 | 38 | 1009.3 |
| 20260504193533 | 71 | 313 | 2.6 | 7.0 | 0.00 | 0.00 | 0.00 | 37 | 1009.0 |
| 20260504192533 | 70 | 286 | 5.2 | 8.7 | 0.00 | 0.00 | 0.00 | 39 | 1009.3 |
| 20260504191533 | 70 | 238 | 5.2 | 9.6 | 0.00 | 0.00 | 0.00 | 38 | 1009.3 |
| 20260504190534 | 70 | 237 | 6.1 | 14.8 | 0.00 | 0.00 | 0.00 | 39 | 1009.5 |
| 20260504185534 | 70 | 225 | 8.7 | 13.9 | 0.00 | 0.00 | 0.00 | 39 | 1009.2 |
| 20260504184536 | 70 | 292 | 3.5 | 9.6 | 0.00 | 0.00 | 0.00 | 40 | 1009.7 |
| 20260504183533 | 70 | 224 | 7.0 | 11.3 | 0.00 | 0.00 | 0.00 | 40 | 1009.8 |
| 20260504182533 | 69 | 233 | 6.1 | 9.6 | 0.00 | 0.00 | 0.00 | 41 | 1009.8 |
| 20260504181534 | 69 | 231 | 6.1 | 12.2 | 0.00 | 0.00 | 0.00 | 41 | 1009.9 |
| 20260504180534 | 68 | 218 | 4.3 | 10.4 | 0.00 | 0.00 | 0.00 | 42 | 1009.7 |
| 20260504175633 | 68 | 207 | 9.6 | 15.6 | 0.00 | 0.00 | 0.00 | 43 | 1010.0 |
| 20260504173633 | 68 | 259 | 1.7 | 4.3 | 0.00 | 0.00 | 0.00 | 44 | 1010.2 |
| 20260504172731 | 68 | 240 | 6.1 | 12.2 | 0.00 | 0.00 | 0.00 | 44 | 1010.3 |
| 20260504171734 | 67 | 256 | 5.2 | 7.8 | 0.00 | 0.00 | 0.00 | 45 | 1010.4 |
| 20260504170733 | 67 | 206 | 3.5 | 6.1 | 0.00 | 0.00 | 0.00 | 45 | 1010.4 |
| 20260504150834 | 64 | 239 | 4.3 | 8.7 | 0.00 | 0.00 | 0.00 | 53 | 1011.7 |
| 20260504120134 | 50 | 221 | 1.7 | 3.5 | 0.00 | 0.00 | 0.00 | 64 | 1013.5 |
| 20260504110332 | 47 | 250 | 0.9 | 2.6 | 0.00 | 0.00 | 0.00 | 65 | 1013.1 |
| 20260504100532 | 43 | 225 | 0.9 | 2.6 | 0.00 | 0.00 | 0.00 | 64 | 1013.0 |
| 20260504081833 | 42 | 225 | 0.0 | 0.0 | 0.00 | 0.00 | 0.00 | 61 | 1012.8 |
| 20260504080833 | 42 | 225 | 0.0 | 0.9 | 0.00 | 0.00 | 0.00 | 61 | 1012.8 |
| 20260504045049 | 35 | 225 | 0.9 | 0.9 | 0.00 | 0.00 | 0.00 | 53 | 1012.4 |
| 20260504044032 | 34 | 225 | 0.9 | 0.9 | 0.00 | 0.00 | 0.00 | 52 | 1012.5 |
| 20260504043049 | 34 | 225 | 0.9 | 1.7 | 0.00 | 0.00 | 0.00 | 53 | 1012.5 |
| 20260504042131 | 34 | 225 | 0.0 | 0.0 | 0.00 | 0.00 | 0.00 | 52 | 1012.3 |
| 20260504040231 | 34 | 225 | 0.0 | 0.9 | 0.00 | 0.00 | 0.00 | 52 | 1012.2 |
| 20260504035329 | 34 | 225 | 0.9 | 0.9 | 0.00 | 0.00 | 0.00 | 51 | 1012.0 |
| 20260504034329 | 34 | 225 | 0.0 | 0.0 | 0.00 | 0.00 | 0.00 | 51 | 1012.1 |
| 20260504033428 | 34 | 225 | 0.0 | 0.0 | 0.00 | 0.00 | 0.00 | 50 | 1012.0 |
| 20260504032429 | 34 | 225 | 0.0 | 0.0 | 0.00 | 0.00 | 0.00 | 50 | 1011.9 |
| 20260504031429 | 35 | 225 | 0.0 | 0.0 | 0.00 | 0.00 | 0.00 | 49 | 1011.9 |
| 20260504025430 | 36 | 225 | 0.0 | 0.0 | 0.00 | 0.00 | 0.00 | 50 | 1012.0 |
| 20260504024428 | 36 | 225 | 0.0 | 0.0 | 0.00 | 0.00 | 0.00 | 49 | 1011.8 |
| 20260504022429 | 37 | 225 | 0.0 | 0.9 | 0.00 | 0.01 | 0.00 | 49 | 1012.0 |
| 20260504021429 | 37 | 225 | 0.9 | 1.7 | 0.00 | 0.01 | 0.00 | 48 | 1011.9 |
| 20260504020429 | 38 | 247 | 0.0 | 0.9 | 0.00 | 0.01 | 0.00 | 48 | 1011.9 |
| 20260504015527 | 38 | 247 | 0.0 | 0.9 | 0.00 | 0.01 | 0.00 | 47 | 1011.8 |
| 20260504014527 | 38 | 247 | 0.0 | 0.0 | 0.00 | 0.01 | 0.00 | 48 | 1011.9 |
| 20260504013529 | 39 | 247 | 0.0 | 0.0 | 0.00 | 0.01 | 0.00 | 47 | 1011.7 |
| 20260504012527 | 39 | 247 | 0.0 | 0.0 | 0.00 | 0.01 | 0.00 | 48 | 1011.7 |
| 20260504011528 | 40 | 247 | 0.0 | 0.0 | 0.00 | 0.01 | 0.00 | 48 | 1011.7 |
| 20260504010528 | 41 | 247 | 0.0 | 0.0 | 0.00 | 0.01 | 0.00 | 47 | 1011.6 |
| 20260504005627 | 41 | 247 | 0.0 | 0.0 | 0.00 | 0.01 | 0.00 | 47 | 1011.5 |
| 20260504002727 | 44 | 247 | 0.0 | 0.0 | 0.00 | 0.01 | 0.00 | 47 | 1011.3 |
| 20260504001728 | 45 | 247 | 0.0 | 0.0 | 0.00 | 0.01 | 0.00 | 47 | 1011.2 |
| 20260504000728 | 46 | 247 | 0.0 | 0.0 | 0.00 | 0.01 | 0.00 | 48 | 1011.1 |
| 20260503235730 | 48 | 247 | 0.0 | 0.9 | 0.00 | 0.01 | 0.00 | 48 | 1011.0 |
| 20260503234828 | 48 | 292 | 0.0 | 0.0 | 0.00 | 0.01 | 0.00 | 48 | 1011.1 |
| 20260503232827 | 50 | 225 | 0.0 | 0.0 | 0.00 | 0.01 | 0.00 | 49 | 1010.9 |
| 20260503231828 | 51 | 252 | 2.6 | 5.2 | 0.00 | 0.01 | 0.00 | 49 | 1010.8 |
| 20260503230828 | 51 | 251 | 0.0 | 2.6 | 0.00 | 0.01 | 0.00 | 49 | 1010.7 |
| 20260503225927 | 51 | 203 | 0.9 | 2.6 | 0.00 | 0.01 | 0.00 | 49 | 1010.7 |
| 20260503224929 | 51 | 220 | 1.7 | 5.2 | 0.00 | 0.01 | 0.00 | 50 | 1010.5 |